Weather History for Ireland West Airport Knock, Ireland

Change the Weather History Date:

Wednesday, December 4, 2013

  Actual Average Record
Temperature  
Mean Temperature 38 °F -  
Max Temperature 45 °F - - ()
Min Temperature 33 °F - - ()
Degree Days  
Heating Degree Days 26    
Moisture  
Dew Point 36 °F    
Average Humidity 84    
Maximum Humidity 93    
Minimum Humidity 70    
Precipitation  
Precipitation 0.00 in - - ()
Sea Level Pressure  
Sea Level Pressure 30.47 in    
Wind  
Wind Speed 9 mph ()    
Max Wind Speed 14 mph    
Max Gust Speed -    
Visibility 7.4 miles    
Events      
T = Trace of Precipitation, MM = Missing Value Source: Averaged Metar Reports

Daily Weather History Graph

Daily Weather History Graph

Search for Another Location

Airport:

Trip Planner

Search our weather history database for the weather conditions in past years. The results will help you decide how hot, cold, wet, or windy it might be!

Date:

Astronomy

Dec. 04, 2013 Rise Set
Actual Time 8:34 AM GMT 4:15 PM GMT
Civil Twilight 7:52 AM GMT 4:58 PM GMT
Nautical Twilight 7:06 AM GMT 5:43 PM GMT
Astronomical Twilight 6:24 AM GMT 6:26 PM GMT
Moon 9:44 AM GMT (12/4) 6:17 PM GMT (12/4)
Length of Visible Light 9h 06m
Length of Day
7h 40m
Waxing Crescent, 3% of the Moon is Illuminated
Dec 4
Waxing Crescent
Dec 9
First Quarter
Dec 17
Full
Dec 25
Last Quarter
Jan 1
New

Hourly Weather History & Observations

Time (GMT) Temp. Windchill Dew Point Humidity Pressure Visibility Wind Dir Wind Speed Gust Speed Precip Events Conditions
12:00 AM 39 °F - 35 °F 81% 30.39 in - WNW 8.9 mph - -  
6:00 AM 38 °F - 34 °F 81% 30.45 in 12 mi West 8.9 mph - -   Partly Cloudy
6:00 AM 37.4 °F 31.4 °F 33.8 °F 87% 30.42 in 6.2 mi West 8.1 mph - N/A   Partly Cloudy
7:00 AM 37.4 °F 31.4 °F 32.0 °F 81% 30.42 in 6.2 mi West 8.1 mph - N/A   Partly Cloudy
8:00 AM 33.8 °F 28.6 °F 32.0 °F 93% 30.42 in 6.2 mi WSW 5.8 mph - N/A   Partly Cloudy
8:30 AM 33.8 °F 27.7 °F 32.0 °F 93% 30.45 in 6.2 mi WSW 6.9 mph - N/A   Partly Cloudy
9:00 AM 37.4 °F 29.8 °F 33.8 °F 87% 30.45 in 6.2 mi West 11.5 mph - N/A   Scattered Clouds
9:30 AM 37.4 °F 30.8 °F 33.8 °F 87% 30.48 in 6.2 mi West 9.2 mph - N/A   Scattered Clouds
10:00 AM 39.2 °F 32.0 °F 35.6 °F 87% 30.48 in 6.2 mi West 11.5 mph - N/A   Scattered Clouds
10:30 AM 39.2 °F 33.0 °F 35.6 °F 87% 30.48 in 6.2 mi West 9.2 mph - N/A   Partly Cloudy
11:00 AM 41.0 °F 35.2 °F 37.4 °F 87% 30.48 in 6.2 mi WSW 9.2 mph - N/A   Scattered Clouds
11:30 AM 41.0 °F 36.4 °F 37.4 °F 87% 30.48 in 6.2 mi WSW 6.9 mph - N/A   Scattered Clouds
12:00 PM 42 °F - 36 °F 70% 30.53 in 19 mi West 13.4 mph - -   Partly Cloudy
12:00 PM 42.8 °F 35.8 °F 35.6 °F 76% 30.48 in 6.2 mi West 13.8 mph - N/A   Mostly Cloudy
12:30 PM 42.8 °F 36.6 °F 35.6 °F 76% 30.48 in 6.2 mi West 11.5 mph - N/A   Mostly Cloudy
1:00 PM 42.8 °F 37.0 °F 37.4 °F 81% 30.48 in 6.2 mi West 10.4 mph - N/A   Scattered Clouds
1:30 PM 42.8 °F 37.0 °F 37.4 °F 81% 30.48 in 6.2 mi West 10.4 mph - N/A   Mostly Cloudy
2:00 PM 44.6 °F 38.8 °F 37.4 °F 76% 30.48 in 5.6 mi West 11.5 mph - N/A   Mostly Cloudy
2:30 PM 42.8 °F 35.8 °F 37.4 °F 81% 30.51 in 6.2 mi WNW 13.8 mph - N/A   Mostly Cloudy
3:00 PM 42.8 °F 36.6 °F 37.4 °F 81% 30.48 in 6.2 mi West 11.5 mph - N/A   Mostly Cloudy
3:30 PM 41.0 °F 34.3 °F 37.4 °F 87% 30.48 in 6.2 mi West 11.5 mph - N/A   Partly Cloudy
4:00 PM 41.0 °F 35.2 °F 37.4 °F 87% 30.48 in 6.2 mi WSW 9.2 mph - N/A   Partly Cloudy
4:30 PM 41.0 °F 34.7 °F 35.6 °F 81% 30.48 in 6.2 mi WSW 10.4 mph - N/A   Partly Cloudy
5:00 PM 39.2 °F 32.0 °F 37.4 °F 93% 30.48 in 6.2 mi WSW 11.5 mph - N/A   Partly Cloudy
6:00 PM 37 °F - 35 °F 89% 30.52 in 16 mi WSW 8.9 mph - -   Partly Cloudy